Time,TemperatureF,DewpointF,PressureIn,WindDirection,WindDirectionDegrees,WindSpeedMPH,WindSpeedGustMPH,Humidity,HourlyPrecipIn,Conditions,Clouds,dailyrainin,SoftwareType,DateUTC
2013-02-21 00:01:00,63.0,62.0,29.53,SW,225,0.0,0.0,98,0.00,,,0.00,,2013-02-20 22:01:00,
2013-02-21 00:11:00,63.0,62.0,29.53,SW,225,0.0,0.0,98,0.00,,,0.00,,2013-02-20 22:11:00,
2013-02-21 00:21:00,63.0,62.0,29.53,SW,225,0.0,0.0,98,0.00,,,0.00,,2013-02-20 22:21:00,
2013-02-21 00:31:00,62.0,61.0,29.53,West,270,0.0,0.0,98,0.00,,,0.00,,2013-02-20 22:31:00,
2013-02-21 00:41:00,62.0,61.0,29.53,West,270,0.0,0.0,98,0.00,,,0.00,,2013-02-20 22:41:00,
2013-02-21 00:51:00,63.0,62.0,29.53,West,270,0.0,0.0,98,0.00,,,0.00,,2013-02-20 22:51:00,
2013-02-21 01:01:00,63.0,62.0,29.53,West,270,0.0,0.0,98,0.00,,,0.00,,2013-02-20 23:01:00,
2013-02-21 01:11:00,63.0,62.0,29.53,West,270,0.0,0.0,98,0.00,,,0.00,,2013-02-20 23:11:00,
2013-02-21 01:21:00,63.0,62.0,29.53,West,270,0.0,0.0,98,0.00,,,0.00,,2013-02-20 23:21:00,
2013-02-21 01:31:00,63.0,62.0,29.53,West,270,0.0,0.0,98,0.00,,,0.00,,2013-02-20 23:31:00,
2013-02-21 01:42:00,63.0,62.0,29.53,West,270,0.0,0.0,98,0.00,,,0.00,,2013-02-20 23:42:00,
2013-02-21 01:52:00,62.0,61.0,29.52,West,270,0.0,1.0,98,0.00,,,0.00,,2013-02-20 23:52:00,
2013-02-21 02:02:00,62.0,61.0,29.51,West,270,0.0,2.0,98,0.00,,,0.00,,2013-02-21 00:02:00,
2013-02-21 02:11:00,62.0,61.0,29.51,West,270,0.0,2.0,98,0.00,,,0.00,,2013-02-21 00:11:00,
2013-02-21 02:21:00,62.0,61.0,29.50,West,270,0.0,0.0,98,0.00,,,0.00,,2013-02-21 00:21:00,
2013-02-21 02:31:00,62.0,61.0,29.50,West,270,0.0,1.0,98,0.00,,,0.00,,2013-02-21 00:31:00,
2013-02-21 02:41:00,62.0,61.0,29.50,West,270,0.0,1.0,98,0.00,,,0.00,,2013-02-21 00:41:00,
2013-02-21 02:52:00,62.0,61.0,29.49,West,270,0.0,0.0,98,0.00,,,0.00,,2013-02-21 00:52:00,
2013-02-21 03:01:00,62.0,61.0,29.49,WSW,248,1.0,2.0,98,0.00,,,0.00,,2013-02-21 01:01:00,
2013-02-21 03:11:00,62.0,61.0,29.49,WSW,248,1.0,2.0,98,0.00,,,0.00,,2013-02-21 01:11:00,
2013-02-21 03:21:00,62.0,61.0,29.48,West,270,0.0,1.0,98,0.00,,,0.00,,2013-02-21 01:21:00,
2013-02-21 03:32:00,62.0,61.0,29.48,West,270,0.0,1.0,98,0.00,,,0.00,,2013-02-21 01:32:00,
2013-02-21 03:41:00,62.0,61.0,29.48,West,270,0.0,1.0,98,0.00,,,0.00,,2013-02-21 01:41:00,
2013-02-21 03:51:00,62.0,61.0,29.48,West,270,0.0,1.0,98,0.00,,,0.00,,2013-02-21 01:51:00,
2013-02-21 04:01:00,61.0,60.0,29.47,West,270,0.0,1.0,98,0.00,,,0.00,,2013-02-21 02:01:00,
2013-02-21 04:11:00,61.0,60.0,29.47,West,270,0.0,1.0,98,0.00,,,0.00,,2013-02-21 02:11:00,
2013-02-21 04:21:00,62.0,61.0,29.47,West,270,0.0,1.0,98,0.00,,,0.00,,2013-02-21 02:21:00,
2013-02-21 04:32:00,62.0,61.0,29.47,West,270,0.0,1.0,98,0.00,,,0.00,,2013-02-21 02:32:00,
2013-02-21 04:42:00,62.0,61.0,29.47,West,270,0.0,1.0,98,0.00,,,0.00,,2013-02-21 02:42:00,
2013-02-21 04:51:00,62.0,61.0,29.47,West,270,0.0,1.0,98,0.00,,,0.00,,2013-02-21 02:51:00,
2013-02-21 05:01:00,61.0,60.0,29.45,West,270,1.0,2.0,98,0.00,,,0.00,,2013-02-21 03:01:00,
2013-02-21 05:12:00,61.0,60.0,29.45,West,270,1.0,2.0,98,0.00,,,0.00,,2013-02-21 03:12:00,
2013-02-21 05:21:00,61.0,60.0,29.45,West,270,1.0,2.0,98,0.00,,,0.00,,2013-02-21 03:21:00,
2013-02-21 05:31:00,61.0,60.0,29.45,West,270,1.0,2.0,98,0.00,,,0.00,,2013-02-21 03:31:00,
2013-02-21 05:41:00,61.0,60.0,29.45,West,270,1.0,2.0,98,0.00,,,0.00,,2013-02-21 03:41:00,
2013-02-21 06:01:00,60.0,59.0,29.44,West,270,0.0,0.0,98,0.00,,,0.00,,2013-02-21 04:01:00,
2013-02-21 06:11:00,60.0,59.0,29.44,West,270,0.0,0.0,98,0.00,,,0.00,,2013-02-21 04:11:00,
2013-02-21 06:21:00,61.0,60.0,29.44,SSW,202,0.0,0.0,98,0.00,,,0.00,,2013-02-21 04:21:00,
2013-02-21 06:31:00,61.0,60.0,29.44,SSW,202,0.0,0.0,98,0.00,,,0.00,,2013-02-21 04:31:00,
2013-02-21 06:41:00,61.0,60.0,29.44,SSW,202,0.0,0.0,98,0.00,,,0.00,,2013-02-21 04:41:00,
2013-02-21 06:51:00,61.0,60.0,29.44,SSW,202,0.0,0.0,98,0.00,,,0.00,,2013-02-21 04:51:00,
2013-02-21 07:02:00,63.0,62.0,29.44,SSW,202,0.0,0.0,98,0.00,,,0.00,,2013-02-21 05:02:00,
2013-02-21 07:11:00,63.0,62.0,29.44,SSW,202,0.0,0.0,98,0.00,,,0.00,,2013-02-21 05:11:00,
2013-02-21 07:22:00,66.0,65.0,29.44,SSW,202,0.0,0.0,98,0.00,,,0.00,,2013-02-21 05:22:00,
2013-02-21 07:33:00,66.0,65.0,29.44,SSW,202,0.0,0.0,98,0.00,,,0.00,,2013-02-21 05:33:00,
2013-02-21 07:42:00,66.0,65.0,29.44,SSW,202,0.0,0.0,98,0.00,,,0.00,,2013-02-21 05:42:00,
2013-02-21 07:51:00,66.0,65.0,29.44,SSW,202,0.0,0.0,98,0.00,,,0.00,,2013-02-21 05:51:00,
2013-02-21 08:01:00,79.0,79.0,29.44,NNE,32,1.0,2.0,100,0.00,,,0.00,,2013-02-21 06:01:00,
2013-02-21 08:11:00,79.0,79.0,29.44,NNE,32,1.0,2.0,100,0.00,,,0.00,,2013-02-21 06:11:00,
2013-02-21 08:21:00,79.0,52.0,29.43,NNE,23,3.0,5.0,39,0.00,,,0.00,,2013-02-21 06:21:00,
2013-02-21 08:31:00,79.0,52.0,29.43,NNE,23,3.0,5.0,39,0.00,,,0.00,,2013-02-21 06:31:00,
2013-02-21 08:41:00,78.0,62.0,29.43,North,10,3.0,6.0,58,0.00,,,0.00,,2013-02-21 06:41:00,
2013-02-21 08:51:00,78.0,62.0,29.43,North,10,3.0,6.0,58,0.00,,,0.00,,2013-02-21 06:51:00,
2013-02-21 09:01:00,78.0,65.0,29.43,NNE,18,3.0,6.0,64,0.00,,,0.00,,2013-02-21 07:01:00,
2013-02-21 09:11:00,82.0,72.0,29.43,NE,50,3.0,6.0,72,0.00,,,0.00,,2013-02-21 07:11:00,
2013-02-21 09:21:00,82.0,72.0,29.43,NE,50,3.0,6.0,72,0.00,,,0.00,,2013-02-21 07:21:00,
2013-02-21 09:31:00,82.0,75.0,29.43,NNE,18,3.0,7.0,80,0.00,,,0.00,,2013-02-21 07:31:00,
2013-02-21 09:41:00,82.0,76.0,29.42,East,81,5.0,7.0,81,0.00,,,0.00,,2013-02-21 07:41:00,
2013-02-21 09:52:00,82.0,76.0,29.42,East,81,5.0,7.0,81,0.00,,,0.00,,2013-02-21 07:52:00,
2013-02-21 10:01:00,82.0,76.0,29.42,East,81,5.0,7.0,81,0.00,,,0.00,,2013-02-21 08:01:00,
2013-02-21 10:11:00,84.0,77.0,29.42,ENE,71,5.0,6.0,79,0.00,,,0.00,,2013-02-21 08:11:00,
2013-02-21 10:21:00,84.0,77.0,29.42,ENE,71,5.0,6.0,79,0.00,,,0.00,,2013-02-21 08:21:00,
2013-02-21 10:31:00,85.0,77.0,29.42,ENE,60,4.0,8.0,76,0.00,,,0.00,,2013-02-21 08:31:00,
2013-02-21 10:41:00,85.0,77.0,29.42,ENE,60,4.0,8.0,76,0.00,,,0.00,,2013-02-21 08:41:00,
2013-02-21 10:51:00,85.0,77.0,29.42,ENE,60,4.0,8.0,76,0.00,,,0.00,,2013-02-21 08:51:00,
2013-02-21 11:01:00,85.0,77.0,29.42,ENE,60,4.0,8.0,76,0.00,,,0.00,,2013-02-21 09:01:00,
2013-02-21 11:11:00,85.0,77.0,29.42,ENE,60,4.0,8.0,76,0.00,,,0.00,,2013-02-21 09:11:00,
2013-02-21 11:22:00,84.0,77.0,29.41,SSE,150,7.0,9.0,80,0.00,,,0.00,,2013-02-21 09:22:00,
2013-02-21 11:31:00,84.0,77.0,29.41,SSE,150,7.0,9.0,80,0.00,,,0.00,,2013-02-21 09:31:00,
2013-02-21 11:41:00,84.0,77.0,29.41,SSE,150,7.0,9.0,80,0.00,,,0.00,,2013-02-21 09:41:00,
2013-02-21 11:51:00,84.0,77.0,29.41,SSE,150,7.0,9.0,80,0.00,,,0.00,,2013-02-21 09:51:00,
2013-02-21 12:01:00,82.0,76.0,29.39,SE,124,6.0,10.0,82,0.00,,,0.00,,2013-02-21 10:01:00,
2013-02-21 12:11:00,82.0,76.0,29.39,SE,124,6.0,10.0,82,0.00,,,0.00,,2013-02-21 10:11:00,
2013-02-21 12:21:00,81.0,74.0,29.39,SSE,148,7.0,10.0,79,0.00,,,0.00,,2013-02-21 10:21:00,
2013-02-21 12:31:00,81.0,73.0,29.38,ESE,113,8.0,13.0,77,0.00,,,0.00,,2013-02-21 10:31:00,
2013-02-21 12:41:00,81.0,73.0,29.38,ESE,113,8.0,13.0,77,0.00,,,0.00,,2013-02-21 10:41:00,
2013-02-21 12:51:00,82.0,74.0,29.37,ESE,112,6.0,12.0,76,0.00,,,0.00,,2013-02-21 10:51:00,
2013-02-21 13:00:00,82.0,74.0,29.37,SSE,152,9.0,14.0,76,0.00,,,0.00,,2013-02-21 11:00:00,
2013-02-21 13:10:00,82.0,74.0,29.37,SSE,152,9.0,14.0,76,0.00,,,0.00,,2013-02-21 11:10:00,
2013-02-21 13:20:00,81.0,72.0,29.37,SSE,155,9.0,15.0,75,0.00,,,0.00,,2013-02-21 11:20:00,
2013-02-21 13:31:00,81.0,72.0,29.37,SSE,155,9.0,15.0,75,0.00,,,0.00,,2013-02-21 11:31:00,
2013-02-21 13:41:00,81.0,72.0,29.37,SSE,155,9.0,15.0,75,0.00,,,0.00,,2013-02-21 11:41:00,
2013-02-21 13:51:00,81.0,67.0,29.37,SSE,158,10.0,16.0,63,0.00,,,0.00,,2013-02-21 11:51:00,
2013-02-21 14:01:00,79.0,61.0,29.37,SE,145,12.0,14.0,54,0.00,,,0.00,,2013-02-21 12:01:00,
2013-02-21 14:11:00,79.0,61.0,29.37,SE,145,12.0,14.0,54,0.00,,,0.00,,2013-02-21 12:11:00,
2013-02-21 14:21:00,79.0,61.0,29.37,SE,145,12.0,14.0,54,0.00,,,0.00,,2013-02-21 12:21:00,
2013-02-21 14:32:00,79.0,61.0,29.37,SE,145,12.0,14.0,54,0.00,,,0.00,,2013-02-21 12:32:00,
2013-02-21 14:42:00,82.0,69.0,29.36,SE,141,9.0,13.0,64,0.00,,,0.00,,2013-02-21 12:42:00,
2013-02-21 14:52:00,82.0,69.0,29.36,SE,141,9.0,13.0,64,0.00,,,0.00,,2013-02-21 12:52:00,
2013-02-21 15:01:00,81.0,69.0,29.36,SSE,166,9.0,13.0,67,0.00,,,0.00,,2013-02-21 13:01:00,
2013-02-21 15:12:00,81.0,69.0,29.36,SSE,166,9.0,13.0,67,0.00,,,0.00,,2013-02-21 13:12:00,
2013-02-21 15:22:00,83.0,73.0,29.36,SSE,160,9.0,12.0,73,0.00,,,0.00,,2013-02-21 13:22:00,
2013-02-21 15:31:00,82.0,72.0,29.35,SE,139,8.0,12.0,73,0.00,,,0.00,,2013-02-21 13:31:00,
2013-02-21 15:41:00,82.0,72.0,29.35,SE,139,8.0,12.0,73,0.00,,,0.00,,2013-02-21 13:41:00,
2013-02-21 15:51:00,83.0,74.0,29.35,SE,126,7.0,12.0,75,0.00,,,0.00,,2013-02-21 13:51:00,
2013-02-21 16:02:00,83.0,75.0,29.34,ESE,117,7.0,10.0,76,0.00,,,0.00,,2013-02-21 14:02:00,
2013-02-21 16:11:00,83.0,75.0,29.34,ESE,117,7.0,10.0,76,0.00,,,0.00,,2013-02-21 14:11:00,
2013-02-21 16:21:00,82.0,74.0,29.34,SSE,150,6.0,12.0,77,0.00,,,0.00,,2013-02-21 14:21:00,
2013-02-21 16:31:00,82.0,74.0,29.34,SSE,152,7.0,10.0,78,0.00,,,0.00,,2013-02-21 14:31:00,
2013-02-21 16:41:00,81.0,72.0,29.34,ESE,117,6.0,13.0,74,0.00,,,0.00,,2013-02-21 14:41:00,
2013-02-21 16:52:00,81.0,72.0,29.34,ESE,117,6.0,13.0,74,0.00,,,0.00,,2013-02-21 14:52:00,
2013-02-21 17:01:00,81.0,72.0,29.34,ESE,112,6.0,9.0,74,0.00,,,0.00,,2013-02-21 15:01:00,
2013-02-21 17:11:00,81.0,72.0,29.34,ESE,112,6.0,9.0,74,0.00,,,0.00,,2013-02-21 15:11:00,
2013-02-21 17:21:00,81.0,70.0,29.35,East,101,6.0,9.0,69,0.00,,,0.00,,2013-02-21 15:21:00,
2013-02-21 17:31:00,81.0,70.0,29.34,SSE,164,7.0,9.0,69,0.00,,,0.00,,2013-02-21 15:31:00,
2013-02-21 17:41:00,81.0,70.0,29.34,SSE,164,7.0,9.0,69,0.00,,,0.00,,2013-02-21 15:41:00,
2013-02-21 17:51:00,80.0,68.0,29.34,SE,144,6.0,8.0,68,0.00,,,0.00,,2013-02-21 15:51:00,
2013-02-21 18:01:00,80.0,68.0,29.34,SE,144,6.0,8.0,68,0.00,,,0.00,,2013-02-21 16:01:00,
2013-02-21 18:12:00,80.0,65.0,29.34,SSE,165,4.0,7.0,60,0.00,,,0.00,,2013-02-21 16:12:00,
2013-02-21 18:21:00,80.0,65.0,29.34,SSE,165,4.0,7.0,60,0.00,,,0.00,,2013-02-21 16:21:00,
2013-02-21 18:31:00,80.0,62.0,29.34,SE,124,5.0,8.0,54,0.00,,,0.00,,2013-02-21 16:31:00,
2013-02-21 18:42:00,80.0,62.0,29.34,SE,124,5.0,8.0,54,0.00,,,0.00,,2013-02-21 16:42:00,
2013-02-21 18:51:00,80.0,62.0,29.34,SE,124,5.0,8.0,54,0.00,,,0.00,,2013-02-21 16:51:00,
2013-02-21 19:01:00,78.0,52.0,29.35,South,179,3.0,6.0,40,0.00,,,0.00,,2013-02-21 17:01:00,
2013-02-21 19:11:00,78.0,43.0,29.36,SE,129,2.0,6.0,29,0.00,,,0.00,,2013-02-21 17:11:00,
2013-02-21 19:21:00,78.0,43.0,29.36,SE,129,2.0,6.0,29,0.00,,,0.00,,2013-02-21 17:21:00,
2013-02-21 19:32:00,75.0,36.0,29.36,SE,142,3.0,6.0,24,0.00,,,0.00,,2013-02-21 17:32:00,
2013-02-21 19:41:00,75.0,36.0,29.36,SE,142,3.0,6.0,24,0.00,,,0.00,,2013-02-21 17:41:00,
2013-02-21 19:52:00,74.0,39.0,29.37,South,170,2.0,5.0,28,0.00,,,0.00,,2013-02-21 17:52:00,
2013-02-21 20:01:00,73.0,44.0,29.38,ESE,112,0.0,3.0,36,0.00,,,0.00,,2013-02-21 18:01:00,
2013-02-21 20:11:00,73.0,44.0,29.38,ESE,112,0.0,3.0,36,0.00,,,0.00,,2013-02-21 18:11:00,
2013-02-21 20:21:00,73.0,62.0,29.38,SE,125,2.0,2.0,69,0.00,,,0.00,,2013-02-21 18:21:00,
2013-02-21 20:31:00,73.0,57.0,29.38,North,0,1.0,2.0,58,0.00,,,0.00,,2013-02-21 18:31:00,
2013-02-21 20:42:00,73.0,57.0,29.38,North,0,1.0,2.0,58,0.00,,,0.00,,2013-02-21 18:42:00,
2013-02-21 20:51:00,73.0,57.0,29.38,North,0,1.0,2.0,58,0.00,,,0.00,,2013-02-21 18:51:00,
2013-02-21 21:01:00,69.0,68.0,29.39,North,0,0.0,1.0,98,0.00,,,0.00,,2013-02-21 19:01:00,
2013-02-21 21:11:00,69.0,68.0,29.39,North,0,0.0,1.0,98,0.00,,,0.00,,2013-02-21 19:11:00,
2013-02-21 21:21:00,69.0,68.0,29.39,North,0,0.0,0.0,98,0.00,,,0.00,,2013-02-21 19:21:00,
2013-02-21 21:31:00,69.0,68.0,29.40,North,0,0.0,0.0,98,0.00,,,0.00,,2013-02-21 19:31:00,
2013-02-21 21:41:00,69.0,68.0,29.40,North,0,0.0,0.0,98,0.00,,,0.00,,2013-02-21 19:41:00,
2013-02-21 21:51:00,68.0,67.0,29.39,North,0,0.0,0.0,98,0.00,,,0.00,,2013-02-21 19:51:00,
2013-02-21 22:01:00,68.0,67.0,29.39,North,0,0.0,0.0,98,0.00,,,0.00,,2013-02-21 20:01:00,
2013-02-21 22:11:00,67.0,66.0,29.41,North,0,0.0,2.0,98,0.00,,,0.00,,2013-02-21 20:11:00,
2013-02-21 22:21:00,67.0,66.0,29.41,North,0,0.0,2.0,98,0.00,,,0.00,,2013-02-21 20:21:00,
2013-02-21 22:31:00,68.0,67.0,29.40,North,0,2.0,2.0,98,0.00,,,0.00,,2013-02-21 20:31:00,
2013-02-21 22:41:00,68.0,67.0,29.40,North,0,2.0,2.0,98,0.00,,,0.00,,2013-02-21 20:41:00,
2013-02-21 22:52:00,67.0,66.0,29.40,North,0,1.0,2.0,98,0.00,,,0.00,,2013-02-21 20:52:00,
2013-02-21 23:02:00,68.0,67.0,29.40,North,0,1.0,1.0,98,0.00,,,0.00,,2013-02-21 21:02:00,
2013-02-21 23:11:00,67.0,66.0,29.41,North,0,1.0,2.0,98,0.00,,,0.00,,2013-02-21 21:11:00,
2013-02-21 23:21:00,67.0,66.0,29.41,North,0,1.0,2.0,98,0.00,,,0.00,,2013-02-21 21:21:00,
2013-02-21 23:31:00,67.0,66.0,29.41,North,0,1.0,2.0,98,0.00,,,0.00,,2013-02-21 21:31:00,
2013-02-21 23:41:00,67.0,66.0,29.40,WSW,241,2.0,3.0,98,0.00,,,0.00,,2013-02-21 21:41:00,
2013-02-21 23:51:00,67.0,66.0,29.40,WSW,241,2.0,3.0,98,0.00,,,0.00,,2013-02-21 21:51:00,